{"data":{"norad_id":62418,"epoch":"2026-05-25T04:10:25.761792Z","epoch_age_seconds":50283,"freshness":"FRESH","line1":"1 62418U 24249K   26145.17390928  .00237029  00000+0  17945-2 0  9999","line2":"2 62418  43.0003  66.2699 0001567 263.4260  96.6429 15.70893643 81510","mean_motion":15.70893643,"eccentricity":0.0001567,"inclination_deg":43.0003,"raan_deg":66.2699,"arg_perigee_deg":263.426,"mean_anomaly_deg":96.6429,"bstar":0.0017945,"rev_number":8151,"period_min":91.667568101554,"perigee_km":355.28645137894,"apogee_km":357.39703701737,"semimajor_km":6734.4787441982,"source":"CELESTRAK","updated_at":"2026-05-25T13:38:19.653935Z"}}